Home > Weather > Chico > Past weeks

Flag for U.S.A. Weather for the Past 2 Weeks in Chico, California, U.S.A.

Now
54 °F

Sunny.


Feels Like: 52 °F
Forecast: 46 / 70 °F
Wind: 7 mph from Northwest

Location: Chico Municipal

Current Time: Feb 13, 2016 at 10:24:54 AM

Latest Report: Feb 13, 2016 at 9:47 AM


Visibility: 40 mi

Pressure: 30.28 "Hg

Humidity: 77%

Dew point: 46 °F

Location of ChicoLocation

Historic Weather in Chico — Graph

°F

Chico Temperature Yesterday

Maximum temperature yesterday: 68 °F (at 1:47 PM)
Minimum temperature yesterday: 45 °F (at 7:47 AM)
Average temperature yesterday: 55 °F

High & Low Weather Summary for the Past Weeks

 TemperatureHumidityPressure
High77 °F (Feb 8, 2:50 PM)100% (Jan 29, 2:45 PM)30.52 "Hg (Jan 29, 2:45 PM)
Low36 °F (Feb 1, 2:55 AM)32% (Feb 7, 10:15 PM)29.71 "Hg (Jan 31, 1:51 PM)
Average49 °F75%30.24 "Hg
* Reported Jan 29 8:47 AM — Feb 13 8:55 AM, Chico, Weather by CustomWeather, © 2016

Note: Actual official high and low records may vary slightly from our data, if they occured in-between our weather recording intervals... More about our weather records

Advertising

Chico Weather History for the Previous 24 Hours

 ConditionsComfort  
Time TempWeatherWind HumidityBarometerVisibility
8:55 AM
Sat, Feb 13
48 °FSunny.No wind87%30.27 "Hg40 mi
7:50 AM45 °FSunny.No wind93%30.26 "Hg40 mi
6:50 AM45 °FPassing clouds.No wind87%30.26 "Hg20 mi
5:35 AM43 °FClear.No wind100%30.25 "Hg10 mi
5:15 AM43 °FClear.No wind100%30.25 "Hg10 mi
4:55 AM46 °FClear.No wind87%30.25 "Hg10 mi
4:35 AM46 °FClear.No wind87%30.24 "Hg10 mi
4:15 AM46 °FClear.No wind93%30.24 "Hg10 mi
3:55 AM48 °FClear.No wind87%30.24 "Hg10 mi
3:35 AM48 °FClear.3 mph87%30.24 "Hg10 mi
3:15 AM46 °FClear.No wind93%30.23 "Hg10 mi
2:55 AM48 °FClear.No wind87%30.23 "Hg10 mi
2:35 AM50 °FClear.No wind82%30.22 "Hg10 mi
2:15 AM50 °FClear.No wind82%30.22 "Hg10 mi
1:55 AM50 °FClear.No wind88%30.22 "Hg10 mi
1:35 AM46 °FClear.No wind100%30.22 "Hg10 mi
1:15 AM50 °FClear.No wind88%30.22 "Hg10 mi
12:55 AM50 °FClear.No wind88%30.22 "Hg10 mi
12:35 AM54 °FClear.6 mph77%30.22 "Hg10 mi
12:15 AM50 °FClear.5 mph88%30.23 "Hg10 mi
11:55 PM
Fri, Feb 12
50 °FClear.7 mph88%30.22 "Hg10 mi
11:35 PM54 °FClear.3 mph77%30.22 "Hg10 mi
11:15 PM55 °FClear.No wind72%30.22 "Hg10 mi
10:55 PM57 °FClear.5 mph67%30.21 "Hg10 mi
10:35 PM55 °FClear.6 mph72%30.21 "Hg10 mi
10:15 PM57 °FClear.7 mph72%30.21 "Hg10 mi
9:55 PM57 °FClear.7 mph72%30.21 "Hg10 mi
9:35 PM57 °FClear.6 mph72%30.21 "Hg10 mi
9:15 PM55 °FClear.No wind77%30.20 "Hg10 mi
8:55 PM59 °FClear.No wind68%30.19 "Hg10 mi
8:35 PM57 °FClear.No wind72%30.19 "Hg10 mi
8:15 PM59 °FClear.5 mph68%30.19 "Hg10 mi
7:55 PM59 °FClear.No wind68%30.19 "Hg10 mi
7:35 PM59 °FClear.5 mph68%30.19 "Hg10 mi
7:15 PM59 °FClear.6 mph72%30.18 "Hg10 mi
6:35 PM61 °FClear.No wind68%30.18 "Hg10 mi
6:15 PM63 °FClear.No wind64%30.18 "Hg10 mi
4:48 PM66 °FPartly sunny.6 mph56%30.16 "Hg25 mi
3:50 PM68 °FPartly sunny.7 mph53%30.16 "Hg25 mi
2:58 PM68 °FPartly sunny.6 mph49%30.15 "Hg25 mi
1:47 PM68 °FPartly sunny.6 mph46%30.16 "Hg25 mi
12:54 PM66 °FPartly sunny.5 mph52%30.21 "Hg40 mi
11:54 AM63 °FPartly sunny.6 mph64%30.21 "Hg40 mi
10:45 AM57 °FPartly sunny.7 mph72%30.24 "Hg40 mi
Weather by CustomWeather, © 2016

See weather overviewHow to use our weather pages